Location: Norton
(51.3000°N, 0.8167°E)
Time: 12:36:58
(UTC+00:00)

Cosmos 1844 Rocket - Pass Details

Date: 03 March 2021
Orbit: 826 x 843 km, 71.0° (Epoch: 16 April)

Event Time Altitude Azimuth Distance (km) Brightness Sun altitude
Rises 20:04:03 0° 324° (NW) 3,376 6.7 -22.8°
Reaches altitude 10° 20:06:43 10° 314° (NW) 2,438 6.0 -23.2°
Maximum altitude 20:11:31 30° 254° (WSW) 1,432 4.3 -23.9°
Drops below altitude 10° 20:16:18 10° 195° (SSW) 2,425 5.0 -24.6°
Enters shadow 20:17:30 - 190° (S) 2,834 5.3 -24.8°
